This is the latest recevied weather packets stored in our database for station/object W2TAO. If no packets are shown the sender has not sent any weather packets the latest 10 day(s).
| Time | Temp. | Humidity | Pressure | Rain* | Wind** | Luminosity | Snow |
|---|---|---|---|---|---|---|---|
| 1778099672 | 15.56° C | 99% | 1007.3 hPa | 0 mm | - | 108 W/m² | - |
| 1778099369 | 15° C | 99% | 1007.2 hPa | 0 mm | - | 127 W/m² | - |
| 1778099067 | 15.56° C | 99% | 1007.3 hPa | 0 mm | - | 270 W/m² | - |
| 1778098763 | 15° C | 99% | 1007.2 hPa | 0 mm | - | 192 W/m² | - |
| 1778098460 | 15° C | 99% | 1007.3 hPa | 0 mm | - | 96 W/m² | - |
| 1778098157 | 15° C | 99% | 1007.3 hPa | 0 mm | - | 67 W/m² | - |
| 1778097853 | 15° C | 99% | 1007.5 hPa | 0 mm | - | 73 W/m² | - |
| 1778097549 | 15° C | 99% | 1007.4 hPa | 0 mm | - | 78 W/m² | - |
| 1778097247 | 15° C | 99% | 1007.5 hPa | 0 mm | - | 84 W/m² | - |
| 1778096943 | 15° C | 99% | 1007.5 hPa | 0.51 mm | - | 105 W/m² | - |
| 1778096640 | 15° C | 99% | 1007.6 hPa | 0.51 mm | - | 81 W/m² | - |
| 1778096337 | 15° C | 99% | 1007.8 hPa | 0 mm | - | 133 W/m² | - |
| 1778096034 | 15° C | 99% | 1008.1 hPa | 1.27 mm | - | 89 W/m² | - |
| 1778095730 | 15° C | 99% | 1008.1 hPa | 0.51 mm | - | 49 W/m² | - |
| 1778095428 | 15° C | 99% | 1008.1 hPa | 0 mm | - | 47 W/m² | - |
| 1778095125 | 14.44° C | 99% | 1008 hPa | 0 mm | - | 49 W/m² | - |
| 1778094821 | 15° C | 99% | 1008.1 hPa | 0 mm | - | 82 W/m² | - |
| 1778094518 | 15° C | 99% | 1007.8 hPa | 0 mm | - | 112 W/m² | - |
| 1778094214 | 15° C | 99% | 1008.2 hPa | 0 mm | - | 123 W/m² | - |
| 1778093911 | 15° C | 99% | 1008.2 hPa | 0 mm | - | 137 W/m² | - |
| 1778093608 | 15° C | 99% | 1008.2 hPa | 0 mm | - | 134 W/m² | - |
| 1778093305 | 15° C | 99% | 1008.3 hPa | 0 mm | - | 173 W/m² | - |
| 1778093002 | 15° C | 99% | 1008.2 hPa | 0 mm | - | 136 W/m² | - |
| 1778092700 | 15° C | 99% | 1008.4 hPa | 0 mm | - | 140 W/m² | - |
| 1778092394 | 15° C | 99% | 1008.4 hPa | 0 mm | - | 177 W/m² | - |
* Rain latest hour (hover to see other rain measurements)
** Current wind speed in m/s (hover to see current wind gust speed)